Weather History for Pine River, MN

Change the Weather History Date:

Tuesday, January 28, 2014

  Actual Average Record
Temperature  
Mean Temperature -16 °F -  
Max Temperature -4 °F 21 °F 39 °F (2008)
Min Temperature -27 °F 3 °F -27 °F (2014)
Degree Days  
Heating Degree Days 80    
Moisture  
Dew Point -20 °F    
Average Humidity 71    
Maximum Humidity 83    
Minimum Humidity 59    
Precipitation  
Precipitation 0.00 in - - ()
Sea Level Pressure  
Sea Level Pressure 30.14 in    
Wind  
Wind Speed 3 mph (WSW)    
Max Wind Speed 10 mph    
Max Gust Speed 16 mph    
Visibility 10 miles    
Events      
Averages and records for this station are not official NWS values.
T = Trace of Precipitation, MM = Missing Value Source: NWS Daily Summary

Daily Weather History Graph

Daily Weather History Graph

Search for Another Location

Airport:

Trip Planner

Search our weather history database for the weather conditions in past years. The results will help you decide how hot, cold, wet, or windy it might be!

Date:

Astronomy

Jan. 28, 2014 Rise Set
Actual Time 7:46 AM CST 5:15 PM CST
Civil Twilight 7:13 AM CST 5:47 PM CST
Nautical Twilight 6:37 AM CST 6:24 PM CST
Astronomical Twilight 6:01 AM CST 7:00 PM CST
Moon 5:31 AM CST (1/28) 3:04 PM CST (1/28)
Length of Visible Light 10h 34m
Length of Day
9h 28m
Waning Crescent, 7% of the Moon is Illuminated
Jan 28
Waning Crescent
Jan 30
New
Feb 6
First Quarter
Feb 14
Full
Feb 22
Last Quarter

Hourly Weather History & Observations

Time (CST) Temp. Windchill Dew Point Humidity Pressure Visibility Wind Dir Wind Speed Gust Speed Precip Events Conditions
12:13 AM -20.2 °F - -23.8 °F 83% 30.27 in 10.0 mi Calm Calm - N/A   Clear
12:33 AM -20.2 °F -30.9 °F -25.6 °F 76% 30.27 in 10.0 mi NW 3.5 mph - N/A   Clear
12:53 AM -22.0 °F - -25.6 °F 83% 30.27 in 10.0 mi Calm Calm - N/A   Clear
1:13 AM -22.0 °F -33.0 °F -27.4 °F 76% 30.26 in 10.0 mi WNW 3.5 mph - N/A   Clear
1:33 AM -20.2 °F - -25.6 °F 76% 30.26 in 10.0 mi Calm Calm - N/A   Clear
1:53 AM -22.0 °F - -25.6 °F 83% 30.25 in 10.0 mi Calm Calm - N/A   Clear
2:13 AM -23.8 °F - -27.4 °F 83% 30.25 in 10.0 mi Calm Calm - N/A   Clear
2:33 AM -22.0 °F - -27.4 °F 76% 30.25 in 10.0 mi Calm Calm - N/A   Clear
2:53 AM -23.8 °F - -29.2 °F 76% 30.25 in 10.0 mi Calm Calm - N/A   Clear
3:12 AM -23.8 °F - -27.4 °F 83% 30.24 in 10.0 mi Calm Calm - N/A   Clear
3:33 AM -25.6 °F - -31.0 °F 76% 30.24 in 10.0 mi Calm Calm - N/A   Clear
3:53 AM -25.6 °F - -31.0 °F 76% 30.24 in 10.0 mi Calm Calm - N/A   Clear
4:13 AM -25.6 °F - -31.0 °F 76% 30.24 in 10.0 mi Calm Calm - N/A   Clear
4:33 AM -27.4 °F - -32.8 °F 75% 30.23 in 10.0 mi Calm Calm - N/A   Clear
4:53 AM -23.8 °F - -27.4 °F 83% 30.23 in 7.0 mi Calm Calm - N/A   Clear
5:13 AM -23.8 °F - -27.4 °F 83% 30.22 in 10.0 mi Calm Calm - N/A   Clear
5:33 AM -23.8 °F - -27.4 °F 83% 30.22 in 10.0 mi Calm Calm - N/A   Clear
5:53 AM -23.8 °F - -29.2 °F 76% 30.22 in 10.0 mi Calm Calm - N/A   Clear
6:13 AM -23.8 °F -35.0 °F -29.2 °F 76% 30.22 in 10.0 mi West 3.5 mph - N/A   Clear
6:33 AM -23.8 °F - -29.2 °F 76% 30.22 in 10.0 mi Calm Calm - N/A   Clear
6:53 AM -23.8 °F -35.0 °F -29.2 °F 76% 30.21 in 10.0 mi WSW 3.5 mph - N/A   Clear
7:13 AM -23.8 °F - -29.2 °F 76% 30.20 in 10.0 mi Calm Calm - N/A   Clear
7:33 AM -23.8 °F - -29.2 °F 76% 30.20 in 10.0 mi Calm Calm - N/A   Clear
7:53 AM -23.8 °F - -29.2 °F 76% 30.20 in 10.0 mi Calm Calm - N/A   Clear
8:13 AM -22.0 °F - -27.4 °F 76% 30.20 in 10.0 mi Calm Calm - N/A   Clear
8:32 AM -20.2 °F -30.9 °F -25.6 °F 76% 30.20 in 10.0 mi West 3.5 mph - N/A   Clear
8:52 AM -20.2 °F -33.5 °F -25.6 °F 76% 30.20 in 10.0 mi West 4.6 mph - N/A   Clear
9:12 AM -18.4 °F -31.4 °F -23.8 °F 76% 30.20 in 10.0 mi West 4.6 mph - N/A   Clear
9:33 AM -18.4 °F -33.4 °F -23.8 °F 76% 30.20 in 10.0 mi West 5.8 mph - N/A   Clear
9:53 AM -16.6 °F -32.9 °F -22.0 °F 76% 30.19 in 10.0 mi West 6.9 mph - N/A   Clear
10:13 AM -14.8 °F -32.2 °F -20.2 °F 77% 30.19 in 10.0 mi West 8.1 mph - N/A   Clear
10:32 AM -14.8 °F -30.8 °F -20.2 °F 77% 30.19 in 10.0 mi West 6.9 mph - N/A   Clear
10:53 AM -13.0 °F -27.0 °F -20.2 °F 70% 30.19 in 10.0 mi WSW 5.8 mph - N/A   Clear
11:13 AM -13.0 °F -27.0 °F -20.2 °F 70% 30.18 in 10.0 mi WSW 5.8 mph - N/A   Clear
11:33 AM -11.2 °F -26.4 °F -18.4 °F 70% 30.17 in 10.0 mi SW 6.9 mph - N/A   Clear
11:53 AM -9.4 °F -24.3 °F -18.4 °F 65% 30.16 in 10.0 mi West 6.9 mph - N/A   Clear
12:13 PM -9.4 °F -25.6 °F -18.4 °F 65% 30.15 in 10.0 mi West 8.1 mph - N/A   Clear
12:33 PM -7.6 °F -22.1 °F -18.4 °F 59% 30.14 in 10.0 mi WSW 6.9 mph - N/A   Clear
12:53 PM -7.6 °F -24.6 °F -18.4 °F 59% 30.13 in 10.0 mi WSW 9.2 mph - N/A   Clear
1:13 PM -7.6 °F -25.7 °F -16.6 °F 65% 30.12 in 10.0 mi WSW 10.4 mph - N/A   Clear
1:33 PM -5.8 °F -22.4 °F -16.6 °F 60% 30.12 in 10.0 mi West 9.2 mph - N/A   Clear
1:52 PM -5.8 °F -23.4 °F -16.6 °F 60% 30.11 in 10.0 mi West 10.4 mph - N/A   Clear
2:12 PM -5.8 °F -22.4 °F -16.6 °F 60% 30.11 in 10.0 mi WSW 9.2 mph - N/A   Clear
2:33 PM -4.0 °F -19.0 °F -14.8 °F 60% 30.10 in 10.0 mi SW 8.1 mph - N/A   Mostly Cloudy
2:52 PM -4.0 °F -19.0 °F -14.8 °F 60% 30.09 in 10.0 mi WSW 8.1 mph - N/A   Overcast
3:13 PM -4.0 °F -20.2 °F -14.8 °F 60% 30.09 in 10.0 mi WSW 9.2 mph 16.1 mph N/A   Overcast
3:33 PM -4.0 °F -20.2 °F -14.8 °F 60% 30.08 in 10.0 mi WSW 9.2 mph - N/A   Overcast
3:52 PM -5.8 °F -21.2 °F -14.8 °F 65% 30.08 in 10.0 mi WSW 8.1 mph - N/A   Overcast
4:13 PM -5.8 °F -19.9 °F -14.8 °F 65% 30.07 in 10.0 mi WSW 6.9 mph - N/A   Overcast
4:33 PM -5.8 °F -21.2 °F -16.6 °F 60% 30.08 in 10.0 mi WSW 8.1 mph - N/A   Overcast
4:53 PM -5.8 °F -22.4 °F -16.6 °F 60% 30.08 in 10.0 mi West 9.2 mph - N/A   Overcast
5:13 PM -5.8 °F -18.4 °F -16.6 °F 60% 30.08 in 10.0 mi WSW 5.8 mph - N/A   Overcast
5:33 PM -7.6 °F -22.1 °F -16.6 °F 65% 30.08 in 10.0 mi WSW 6.9 mph - N/A   Overcast
5:53 PM -7.6 °F -20.6 °F -14.8 °F 71% 30.08 in 10.0 mi WSW 5.8 mph - N/A   Overcast
6:13 PM -7.6 °F -20.6 °F -14.8 °F 71% 30.07 in 10.0 mi West 5.8 mph - N/A   Overcast
6:33 PM -5.8 °F -18.4 °F -14.8 °F 65% 30.06 in 10.0 mi West 5.8 mph - N/A   Overcast
6:53 PM -5.8 °F -19.9 °F -14.8 °F 65% 30.06 in 10.0 mi WSW 6.9 mph - N/A   Overcast
7:13 PM -5.8 °F -21.2 °F -14.8 °F 65% 30.05 in 10.0 mi WSW 8.1 mph - N/A   Overcast
7:33 PM -5.8 °F -19.9 °F -14.8 °F 65% 30.04 in 10.0 mi WSW 6.9 mph - N/A   Overcast
7:52 PM -5.8 °F -18.4 °F -14.8 °F 65% 30.05 in 10.0 mi WSW 5.8 mph - N/A   Scattered Clouds
8:13 PM -5.8 °F -14.5 °F -14.8 °F 65% 30.03 in 10.0 mi WSW 3.5 mph - N/A   Clear
8:33 PM -5.8 °F -18.4 °F -14.8 °F 65% 30.02 in 10.0 mi WSW 5.8 mph - N/A   Clear
8:53 PM -5.8 °F -18.4 °F -14.8 °F 65% 30.01 in 10.0 mi WSW 5.8 mph - N/A   Clear
9:12 PM -5.8 °F -18.4 °F -14.8 °F 65% 30.01 in 10.0 mi WSW 5.8 mph - N/A   Clear
9:33 PM -5.8 °F -21.2 °F -13.0 °F 71% 29.99 in 10.0 mi WSW 8.1 mph - N/A   Clear
9:53 PM -5.8 °F -19.9 °F -11.2 °F 77% 29.99 in 10.0 mi WSW 6.9 mph - N/A   Clear
10:13 PM -5.8 °F -18.4 °F -11.2 °F 77% 29.98 in 10.0 mi WSW 5.8 mph - N/A   Clear
10:33 PM -5.8 °F -18.4 °F -13.0 °F 71% 29.97 in 10.0 mi West 5.8 mph - N/A   Clear
10:52 PM -5.8 °F -16.7 °F -11.2 °F 77% 29.97 in 10.0 mi West 4.6 mph - N/A   Clear
11:13 PM -5.8 °F -16.7 °F -11.2 °F 77% 29.96 in 10.0 mi West 4.6 mph - N/A   Clear
11:33 PM -5.8 °F -19.9 °F -11.2 °F 77% 29.96 in 10.0 mi West 6.9 mph - N/A   Clear
11:53 PM -5.8 °F -16.7 °F -11.2 °F 77% 29.95 in 10.0 mi West 4.6 mph - N/A   Clear